"Pseudo-MPEC" for C162Y75

Created 2025 Oct 22 5:35:03 UT using Find_Orb

Click here for an explanation of pseudo-MPECs

 
 Astrometry: 
     C162Y75* C2025 10 04.28883102 58 45.372+15 14 17.34   ~A48Z 23.11GVNEOCPV00
     C162Y75  C2025 10 04.29443502 58 46.211+15 14 13.02   ~A48Z 23.26GVNEOCPV00
     C162Y75  C2025 10 04.30003402 58 47.046+15 14 09.46   ~A48Z 23.26GVNEOCPV00

Station data:
(V00) Kitt Peak-Bok  (N31.963125 W111.600190)  US/Arizona. Measurers T.
   Beuden, V. F. Carvajal, D. Fay, J. B. Fazekas, D. C. Fuls, A. R. Gibbs, A.
   D. Grauer, H. Gröller, J. K. Hogan, R. A. Kowalski, S. M. Larson, G. J.
   Leonard, D. Rankin, R. L. Seaman, F. C. Shelly, K. W. Wierzchoś. 2.25-m
   reflector + 4x4K mosaic CCD.

Orbital elements:  C162Y75
   Perihelion 2025 Dec 4.470791 +/- 32.5 TT = 11:17:56.3 (JD 2461013.970791)
Epoch 2025 Oct  4.0 TT = JDT 2460952.5   Earth MOID: 0.0201   Ve: 0.0142
M 324.053779288 +/- 30              Me: 0.0356   Ma: 0.0420      AutoNEOCP
n   0.584769127 +/- 0.448           Peri.  311.530787 +/- 60
a   1.416271204 +/- 0.723           Node   193.824606 +/- 56
e   0.74007193 +/- 0.25             Incl.    5.285239 +/- 3.3
P   1.685/615.616d         H 25.16  G  0.15   U 12.2  SR
q 0.368128637 +/- 0.435    Q 2.464413771 +/- 35.5         (J2000 ecliptic)
From 3 observations 2025 Oct. 4 (16.1 min); mean residual 0".13
Residuals in arcseconds: 
251004 V00  .01-  .13+    251004 V00  .01+  .26-    251004 V00  .00   .13+    

Ephemerides (geocentric):
Date (UTC) HH   RA             Dec           delta  r     elong  mag " sig PA
---- --------  ------------   ------------  ------ ------ -----  --- --------
2025 10 22 06  12 07 35.030   -25 58 04.97  .06095 .94177  27.8 27??  67d  79
2025 10 22 07  12 08 57.651   -25 56 07.02  .06146 .94117  27.5 27??  67d  79
2025 10 22 08  12 10 18.867   -25 54 08.09  .06198 .94058  27.3 27??  67d  79
2025 10 22 09  12 11 38.706   -25 52 08.31  .06250 .93998  27.0 27??  67d  79
2025 10 22 10  12 12 57.200   -25 50 07.76  .06301 .93938  26.7 27??  67d  79
2025 10 22 11  12 14 14.376   -25 48 06.54  .06353 .93878  26.5 27??  67d  79
2025 10 22 12  12 15 30.263   -25 46 04.74  .06406 .93818  26.3 27??  67d  79
2025 10 22 13  12 16 44.889   -25 44 02.44  .06458 .93758  26.0 28??  67d  79
2025 10 22 14  12 17 58.280   -25 41 59.72  .06510 .93698  25.8 28??  67d  79
2025 10 22 15  12 19 10.463   -25 39 56.66  .06563 .93638  25.6 28??  67d  79
2025 10 22 16  12 20 21.464   -25 37 53.32  .06616 .93579  25.3 28??  67d  79
2025 10 22 17  12 21 31.307   -25 35 49.78  .06669 .93519  25.1 28??  67d  79
2025 10 22 18  12 22 40.018   -25 33 46.09  .06722 .93459  24.9 28??  67d  79
2025 10 22 19  12 23 47.621   -25 31 42.31  .06775 .93399  24.7 28??  67d  79
2025 10 22 20  12 24 54.139   -25 29 38.50  .06828 .93339  24.5 28??  67d  79
2025 10 22 21  12 25 59.594   -25 27 34.71  .06882 .93279  24.3 28??  67d  79
2025 10 22 22  12 27 04.010   -25 25 30.99  .06935 .93218  24.1 28??  67d  79
2025 10 22 23  12 28 07.409   -25 23 27.38  .06989 .93158  23.9 28??  67d  79
2025 10 23 00  12 29 09.811   -25 21 23.93  .07043 .93098  23.7 28??  67d  79
2025 10 23 01  12 30 11.237   -25 19 20.68  .07097 .93038  23.5 28??  67d  79
2025 10 23 02  12 31 11.708   -25 17 17.67  .07151 .92978  23.3 28??  67d  79
2025 10 23 03  12 32 11.245   -25 15 14.93  .07206 .92918  23.1 28??  67d  79
2025 10 23 04  12 33 09.865   -25 13 12.50  .07260 .92858  22.9 28??  67d  79
2025 10 23 05  12 34 07.588   -25 11 10.40  .07314 .92798  22.7 29??  67d  79
2025 10 23 06  12 35 04.433   -25 09 08.67  .07369 .92737  22.6 29??  67d  79
2025 10 23 07  12 36 00.418   -25 07 07.34  .07424 .92677  22.4 29??  67d  79
2025 10 23 08  12 36 55.560   -25 05 06.42  .07478 .92617  22.2 29??  67d  79
2025 10 23 09  12 37 49.876   -25 03 05.94  .07533 .92557  22.1 29??  67d  79
2025 10 23 10  12 38 43.384   -25 01 05.93  .07588 .92496  21.9 29??  67d  79
2025 10 23 11  12 39 36.100   -24 59 06.41  .07644 .92436  21.7 29??  67d  79
2025 10 23 12  12 40 28.039   -24 57 07.39  .07699 .92376  21.6 29??  67d  79
2025 10 23 13  12 41 19.217   -24 55 08.89  .07754 .92315  21.4 29??  67d  79
2025 10 23 14  12 42 09.651   -24 53 10.93  .07810 .92255  21.3 29??  67d  79
2025 10 23 15  12 42 59.353   -24 51 13.53  .07865 .92195  21.1 29??  67d  79
2025 10 23 16  12 43 48.340   -24 49 16.69  .07921 .92134  21.0 29??  67d  79
2025 10 23 17  12 44 36.625   -24 47 20.43  .07976 .92074  20.8 29??  67d  79
2025 10 23 18  12 45 24.222   -24 45 24.76  .08032 .92014  20.7 29??  67d  79
2025 10 23 19  12 46 11.144   -24 43 29.70  .08088 .91953  20.5 29??  67d  79
2025 10 23 20  12 46 57.406   -24 41 35.25  .08144 .91893  20.4 29??  67d  79
2025 10 23 21  12 47 43.019   -24 39 41.42  .08200 .91832  20.2 29??  67d  79
2025 10 23 22  12 48 27.996   -24 37 48.23  .08256 .91772  20.1 29??  67d  79
2025 10 23 23  12 49 12.350   -24 35 55.67  .08312 .91711  20.0 30??  67d  79
2025 10 24 00  12 49 56.092   -24 34 03.75  .08369 .91651  19.8 30??  67d  79
2025 10 24 01  12 50 39.235   -24 32 12.48  .08425 .91590  19.7 30??  67d  79
2025 10 24 02  12 51 21.790   -24 30 21.87  .08482 .91529  19.6 30??  67d  79
2025 10 24 03  12 52 03.768   -24 28 31.91  .08538 .91469  19.5 30??  67d  79
2025 10 24 04  12 52 45.179   -24 26 42.62  .08595 .91408  19.3 30??  67d  79
2025 10 24 05  12 53 26.036   -24 24 53.99  .08651 .91348  19.2 30??  67d  79